User: anonymous
Location: Drayton Valley
(53.2170°N, 114.9830°W)
Time: 21:49:45
(UTC-06:00)
Language:

MOZ.5/SAFIR/RUBIN 5/SL-8 - Orbit

View from above orbital plane
View from above orbital plane
View from above satellite
View from above satellite

Ground track
Ground track

The orbit data is extracted from the following two-line orbital elements,

1 28898U 05043G   14106.52593389  .00000411  00000-0  95729-4 0  7904
2 28898 097.8387 299.5175 0019371 226.4759 186.1330 14.59416758450936
Epoch (UTC): 16 April 2014 12:37:20
Eccentricity: 0.0019371
inclination: 97.8387°
perigee height: 681 km
apogee height: 709 km
right ascension of ascending node: 299.5175°
argument of perigee: 226.4759°
revolutions per day: 14.59416758
mean anomaly at epoch: 186.1330°
orbit number at epoch: 45093

The dashed part of the orbit path shows where the satellite is in the earth's shadow,  

DLR